Weather History for LEMG - October, 2012

Change the Weather History Date:

Friday, October 19, 2012

  Actual Average Record
Temperature  
Mean Temperature 61 °F -  
Max Temperature 65 °F 67 °F 84 °F (2013)
Min Temperature 57 °F 53 °F 50 °F (1999)
Degree Days  
Heating Degree Days 4    
Growing Degree Days 11 (Base 50)    
Moisture  
Dew Point 56 °F    
Average Humidity 81    
Maximum Humidity 94    
Minimum Humidity 60    
Precipitation  
Precipitation 0.00 in 0.12 in - ()
Sea Level Pressure  
Sea Level Pressure 29.80 in    
Wind  
Wind Speed 3 mph ()    
Max Wind Speed 8 mph    
Max Gust Speed 23 mph    
Visibility 6.7 miles    
Events Rain    
Averages and records for this station are not official NWS values.
T = Trace of Precipitation, MM = Missing Value Source: Averaged Metar Reports

Daily Weather History Graph

Daily Weather History Graph

Search for Another Location

Airport or City:

Trip Planner

Search our weather history database for the weather conditions in past years. The results will help you decide how hot, cold, wet, or windy it might be!

Date:

Astronomy

Oct. 19, 2012 Rise Set
Actual Time 8:29 AM CEST 7:35 PM CEST
Civil Twilight 8:03 AM CEST 8:02 PM CEST
Nautical Twilight 7:32 AM CEST 8:32 PM CEST
Astronomical Twilight 7:02 AM CEST 9:02 PM CEST
Moon 12:52 PM CEST (10/19) 11:04 PM CEST (10/19)
Length of Visible Light 11h 59m
Length of Day
11h 06m
Waxing Crescent, 21% of the Moon is Illuminated
Oct 19
Waxing Crescent
Oct 22
First Quarter
Oct 29
Full
Nov 7
Last Quarter
Nov 13
New

Hourly Weather History & Observations

Time (CEST) Temp. Dew Point Humidity Pressure Visibility Wind Dir Wind Speed Gust Speed Precip Events Conditions
12:00 AM 66.2 °F 59.0 °F 78% 29.68 in 6.2 mi SSE 4.6 mph - N/A   Mostly Cloudy
12:30 AM 64.4 °F 59.0 °F 83% 29.68 in 6.2 mi SSE 5.8 mph - N/A   Mostly Cloudy
1:30 AM 62.6 °F 60.8 °F 94% 29.71 in 6.2 mi NNE 4.6 mph - N/A Rain Light Rain
2:00 AM 62 °F 59 °F 88% 29.73 in 6 mi East 3.5 mph - -   Partly Cloudy
2:00 AM 62.6 °F 59.0 °F 88% 29.71 in 6.2 mi East 3.5 mph - N/A   Mostly Cloudy
2:30 AM 60.8 °F 57.2 °F 88% 29.74 in 6.2 mi SSW 8.1 mph - N/A Rain Rain
3:00 AM 60.8 °F 57.2 °F 88% 29.74 in 6.2 mi WSW 4.6 mph - N/A   Mostly Cloudy
3:30 AM 60.8 °F 59.0 °F 94% 29.74 in 6.2 mi Calm Calm - N/A   Mostly Cloudy
4:00 AM 60.8 °F 59.0 °F 94% 29.74 in 6.2 mi Calm Calm - N/A Rain Light Rain
4:30 AM 60.8 °F 59.0 °F 94% 29.74 in 6.2 mi NNE 4.6 mph - N/A Rain Light Rain
5:00 AM 60.8 °F 57.2 °F 88% 29.74 in 6.2 mi Variable 2.3 mph - N/A   Mostly Cloudy
5:30 AM 60.8 °F 57.2 °F 88% 29.74 in 6.2 mi Variable 1.2 mph - N/A   Mostly Cloudy
6:00 AM 60.8 °F 57.2 °F 88% 29.77 in 6.2 mi Variable 1.2 mph - N/A   Mostly Cloudy
6:30 AM 60.8 °F 57.2 °F 88% 29.77 in 6.2 mi Variable 1.2 mph - N/A   Mostly Cloudy
7:00 AM 60.8 °F 57.2 °F 88% 29.77 in 6.2 mi NE 1.2 mph - N/A   Mostly Cloudy
7:30 AM 60.8 °F 57.2 °F 88% 29.77 in 6.2 mi NE 1.2 mph - N/A   Mostly Cloudy
8:00 AM 61 °F 57 °F 83% 29.78 in 6 mi 1.2 mph - -   Partly Cloudy
8:00 AM 60.8 °F 57.2 °F 88% 29.77 in 6.2 mi Variable 1.2 mph - N/A   Mostly Cloudy
8:30 AM 60.8 °F 57.2 °F 88% 29.77 in 6.2 mi West 2.3 mph - N/A   Mostly Cloudy
9:00 AM 60.8 °F 57.2 °F 88% 29.80 in 6.2 mi West 1.2 mph - N/A   Mostly Cloudy
9:30 AM 59.0 °F 57.2 °F 94% 29.80 in 6.2 mi NW 2.3 mph - N/A Rain Light Rain
10:00 AM 60.8 °F 57.2 °F 88% 29.80 in 6.2 mi Variable 2.3 mph - N/A Rain Light Rain
10:30 AM 60.8 °F 57.2 °F 88% 29.83 in 6.2 mi Variable 2.3 mph - N/A   Mostly Cloudy
11:00 AM 62.6 °F 57.2 °F 82% 29.83 in 6.2 mi WNW 3.5 mph - N/A   Scattered Clouds
11:30 AM 62.6 °F 57.2 °F 82% 29.83 in 6.2 mi Variable 2.3 mph - N/A Rain Light Rain
12:00 PM 62.6 °F 57.2 °F 82% 29.86 in 6.2 mi Variable 1.2 mph - N/A   Mostly Cloudy
12:12 PM 62.6 °F 57.2 °F 82% 29.86 in 6.2 mi Calm Calm - N/A Rain Rain
12:30 PM 62.6 °F 57.2 °F 82% 29.86 in 6.2 mi Variable 1.2 mph - N/A Rain Light Rain
1:00 PM 62.6 °F 57.2 °F 82% 29.83 in 6.2 mi Variable 2.3 mph - N/A   Scattered Clouds
1:30 PM 62.6 °F 55.4 °F 77% 29.83 in 6.2 mi Variable 2.3 mph - N/A   Scattered Clouds
2:00 PM 63 °F 53 °F 60% 29.85 in 19 mi NNE 1.2 mph - -   Partly Cloudy
2:00 PM 62.6 °F 55.4 °F 77% 29.83 in 6.2 mi NNE 1.2 mph 15.0 mph N/A   Scattered Clouds
2:30 PM 64.4 °F 53.6 °F 68% 29.83 in 6.2 mi Calm Calm - N/A   Scattered Clouds
3:00 PM 64.4 °F 53.6 °F 68% 29.83 in 6.2 mi NNE 1.2 mph - N/A   Scattered Clouds
3:30 PM 64.4 °F 55.4 °F 73% 29.83 in 6.2 mi East 2.3 mph 23.0 mph N/A   Scattered Clouds
4:00 PM 64.4 °F 53.6 °F 68% 29.83 in 6.2 mi Variable 2.3 mph - N/A   Scattered Clouds
4:30 PM 64.4 °F 53.6 °F 68% 29.80 in 6.2 mi Calm Calm - N/A   Partly Cloudy
5:00 PM 64.4 °F 53.6 °F 68% 29.80 in 6.2 mi Variable 1.2 mph - N/A   Partly Cloudy
5:30 PM 64.4 °F 53.6 °F 68% 29.83 in 6.2 mi ESE 3.5 mph - N/A   Partly Cloudy
6:00 PM 64.4 °F 53.6 °F 68% 29.80 in 6.2 mi Variable 2.3 mph - N/A   Partly Cloudy
6:30 PM 64.4 °F 53.6 °F 68% 29.83 in 6.2 mi SE 1.2 mph - N/A   Partly Cloudy
7:00 PM 64.4 °F 51.8 °F 64% 29.83 in 6.2 mi Variable 1.2 mph - N/A   Partly Cloudy
7:30 PM 64.4 °F 55.4 °F 73% 29.83 in 6.2 mi SE 1.2 mph - N/A   Partly Cloudy
8:00 PM 63 °F 55 °F 67% 29.83 in 19 mi Calm Calm - -   Scattered Clouds
8:00 PM 62.6 °F 55.4 °F 77% 29.83 in 6.2 mi Calm Calm - N/A   Partly Cloudy
8:30 PM 60.8 °F 55.4 °F 82% 29.83 in 6.2 mi SSW 1.2 mph - N/A   Partly Cloudy
9:00 PM 59.0 °F 53.6 °F 82% 29.83 in 6.2 mi West 2.3 mph - N/A   Partly Cloudy
9:30 PM 57.2 °F 53.6 °F 88% 29.83 in - WNW 2.3 mph - N/A   Clear
10:00 PM 59.0 °F 53.6 °F 82% 29.83 in - WNW 8.1 mph - N/A   Clear
10:30 PM 57.2 °F 53.6 °F 88% 29.83 in - WNW 4.6 mph - N/A   Clear
11:00 PM 59.0 °F 51.8 °F 77% 29.86 in - WNW 8.1 mph - N/A   Clear
11:30 PM 57.2 °F 51.8 °F 82% 29.86 in - WNW 2.3 mph - N/A   Clear